Simultaneous Nadir Overpasses (SNOs) Predictions

Prediction of SNOs between AQUA and NPP Satellite Orbit:

Table of predicted SNOs for the next 14.0 days since TLE Epoch: 7/2/2016
Index Date (AQUA) Time (AQUA) Lat,Lon (AQUA) SZA (AQUA ) Date (NPP) Time (NPP) Lat,Lon (NPP) SZA (NPP ) Distance(km) Time Diff (sec)
1 07/03/2016 05:32:25 -74.76, 152.48 103.55 07/03/2016 05:32:11 -74.76, 152.49 103.54 0.32 14
2 07/03/2016 06:21:28 75.89, -36.77 75.16 07/03/2016 06:22:31 75.89, -36.79 75.11 0.68 63
3 07/05/2016 20:59:51 73.45, 97.72 78.18 07/05/2016 20:58:46 73.45, 97.67 78.26 1.80 65
4 07/05/2016 21:48:49 -74.98, -91.07 103.53 07/05/2016 21:49:01 -74.97, -91.14 103.53 2.28 12
5 07/08/2016 13:16:01 74.40,-144.29 77.44 07/08/2016 13:15:21 74.40,-144.23 77.46 1.76 40
6 07/08/2016 14:05:03 -75.69, 26.77 104.05 07/08/2016 14:05:40 -75.70, 26.83 104.09 1.58 37
7 07/11/2016 05:32:22 74.76, -27.52 77.38 07/11/2016 05:32:08 74.76, -27.50 77.39 0.41 14
8 07/11/2016 06:21:26 -75.95, 143.41 103.99 07/11/2016 06:22:29 -75.95, 143.42 104.05 0.33 63
9 07/13/2016 20:59:45 -73.68, -81.81 101.02 07/13/2016 20:58:40 -73.68, -81.80 100.97 0.56 65
10 07/13/2016 21:48:42 75.11, 89.28 77.37 07/13/2016 21:48:54 75.11, 89.27 77.36 0.34 12




NCC Satellite Simultaneous Nadir Overpasses (SNOs) Prediction Service
